Gillette, WY

12:10 AM MST on January 20, 2017 (GMT -0700)
Gillette-Campbell County

Weather History for KGCC - March, 2014

Change the Weather History Date:

Thursday, March 13, 2014

  Actual Average Record
Temperature  
Mean Temperature 45 °F 34 °F  
Max Temperature 57 °F 46 °F 72 °F (2007)
Min Temperature 32 °F 22 °F -2 °F (1944)
Degree Days  
Heating Degree Days 20 31  
Month to date heating degree days 423  
Since 1 July heating degree days 5831  
Cooling Degree Days 0 0  
Month to date cooling degree days 0  
Year to date cooling degree days 0  
Moisture  
Dew Point 23 °F    
Average Humidity 49    
Maximum Humidity 73    
Minimum Humidity 25    
Precipitation  
Precipitation 0.00 in 0.03 in 0.60 in (1929)
Month to date precipitation 0.33  
Year to date precipitation 1.11  
Sea Level Pressure  
Sea Level Pressure 29.89 in    
Wind  
Wind Speed 11 mph (West)    
Max Wind Speed 25 mph    
Max Gust Speed 31 mph    
Visibility 10 miles    
Events      
T = Trace of Precipitation, MM = Missing Value Source: NWS Daily Summary

Daily Weather History Graph

Daily Weather History Graph

Search for Another Location

Airport or City:

Trip Planner

Search our weather history database for the weather conditions in past years. The results will help you decide how hot, cold, wet, or windy it might be!

Date:

Astronomy

Mar. 13, 2014 Rise Set
Actual Time 7:18 AM MDT 7:05 PM MDT
Civil Twilight 6:49 AM MDT 7:34 PM MDT
Nautical Twilight 6:15 AM MDT 8:08 PM MDT
Astronomical Twilight 5:41 AM MDT 8:42 PM MDT
Moon 4:29 PM MDT (3/13) 5:31 AM MDT (3/13)
Length of Visible Light 12h 45m
Length of Day
11h 47m
Waxing Gibbous, 92% of the Moon is Illuminated
Mar 13
Waxing Gibbous
Mar 16
Full
Mar 23
Last Quarter
Mar 30
New
Apr 7
First Quarter

Hourly Weather History & Observations

Time (MDT) Temp. Windchill Dew Point Humidity Pressure Visibility Wind Dir Wind Speed Gust Speed Precip Events Conditions
12:53 AM 34.0 °F 28.0 °F 19.9 °F 56% 30.06 in 10.0 mi SW 6.9 mph - N/A   Clear
1:53 AM 35.1 °F 27.9 °F 19.9 °F 54% 30.03 in 10.0 mi SW 9.2 mph - N/A   Clear
2:53 AM 34.0 °F 28.0 °F 19.9 °F 56% 30.00 in 10.0 mi SSW 6.9 mph - N/A   Clear
3:53 AM 35.1 °F 31.0 °F 19.9 °F 54% 29.97 in 10.0 mi SW 4.6 mph - N/A   Clear
4:53 AM 33.1 °F - 19.9 °F 59% 29.95 in 10.0 mi Calm Calm - N/A   Clear
5:53 AM 35.1 °F 25.5 °F 21.0 °F 57% 29.93 in 10.0 mi SW 15.0 mph - N/A   Clear
6:53 AM 35.1 °F 26.9 °F 21.0 °F 57% 29.93 in 10.0 mi SW 11.5 mph - N/A   Clear
7:53 AM 36.0 °F 26.3 °F 21.9 °F 57% 29.92 in 10.0 mi SW 16.1 mph - N/A   Clear
8:53 AM 41.0 °F 33.5 °F 23.0 °F 49% 29.89 in 10.0 mi SW 13.8 mph - N/A   Clear
9:53 AM 46.0 °F 39.6 °F 24.1 °F 42% 29.86 in 10.0 mi SW 15.0 mph - N/A   Clear
10:53 AM 48.9 °F - 26.1 °F 41% 29.82 in 10.0 mi SW 15.0 mph - N/A   Clear
11:53 AM 51.1 °F - 26.1 °F 38% 29.80 in 10.0 mi SW 16.1 mph - N/A   Clear
12:53 PM 54.0 °F - 24.1 °F 31% 29.78 in 10.0 mi SW 10.4 mph - N/A   Clear
1:53 PM 57.0 °F - 21.0 °F 25% 29.76 in 10.0 mi WNW 6.9 mph - N/A   Clear
2:53 PM 55.0 °F - 21.0 °F 27% 29.77 in 10.0 mi NNW 20.7 mph 27.6 mph N/A   Clear
3:53 PM 54.0 °F - 21.0 °F 28% 29.77 in 10.0 mi NW 21.9 mph 28.8 mph N/A   Clear
4:53 PM 51.1 °F - 23.0 °F 33% 29.81 in 10.0 mi North 23.0 mph 31.1 mph N/A   Clear
5:53 PM 48.9 °F - 21.0 °F 33% 29.82 in 10.0 mi NW 25.3 mph 29.9 mph N/A   Clear
6:53 PM 45.0 °F 37.9 °F 23.0 °F 42% 29.84 in 10.0 mi NNW 16.1 mph - N/A   Clear
7:53 PM 41.0 °F 32.5 °F 25.0 °F 53% 29.88 in 10.0 mi NNW 17.3 mph 24.2 mph N/A   Clear
8:53 PM 36.0 °F 29.6 °F 26.1 °F 67% 29.93 in 10.0 mi NW 8.1 mph - N/A   Mostly Cloudy
9:53 PM 35.1 °F 27.4 °F 26.1 °F 70% 29.93 in 10.0 mi NW 10.4 mph - N/A   Clear
10:53 PM 33.1 °F 25.5 °F 25.0 °F 72% 29.96 in 10.0 mi WNW 9.2 mph - N/A   Clear
11:53 PM 32.0 °F 23.0 °F 24.1 °F 73% 29.95 in 10.0 mi WNW 11.5 mph - N/A   Clear